Home > Weather > Germany > Troisdorf > Past weeks

Flag for Germany Weather past 2 weeks in Troisdorf, North Rhine-Westphalia, Germany

54 °F

Passing clouds.

Feels Like: 50 °F
Forecast: 47 / 53 °F
Wind: 10 mph from West

Location: Koeln / Bonn

Current Time: Dec 1, 2015 at 9:09:37 PM

Latest Report: Dec 1, 2015 at 8:50 PM

Visibility: N/A

Pressure: 30.30 "Hg

Humidity: 88%

Dew point: 50 °F

Location of TroisdorfLocation

Historic Weather in Troisdorf — Graph


Troisdorf temperature yesterday

Maximum temperature yesterday: 54 °F (at 6:20 PM)
Minimum temperature yesterday: 46 °F (at 1:50 AM)
Average temperature yesterday: 49 °F

Past Weeks' High & Low Weather Summary

High61 °F (Nov 17, 11:20 AM)100% (Nov 16, 11:20 PM)30.30 "Hg (Nov 16, 11:20 PM)
Low30 °F (Nov 26, 11:20 PM)59% (Nov 18, 9:50 AM)29.39 "Hg (Nov 21, 1:50 PM)
Average44 °F87%29.90 "Hg
* Reported Nov 16 7:20 PM — Dec 1 7:50 PM, Troisdorf, Weather by CustomWeather, © 2015

Note: Actual official high and low records may vary slightly from our data, if they occured in-between our weather recording intervals... More about our weather records


Troisdorf weather history for previous 24 hours

Time TempWeatherWind HumidityBarometerVisibility
7:50 PM
Tue, Dec 1
54 °FPartly cloudy.13 mph94%30.30 "HgN/A
7:20 PM54 °FPartly cloudy.8 mph100%30.30 "HgN/A
6:50 PM54 °FPartly cloudy.12 mph100%30.27 "HgN/A
6:20 PM54 °FPartly cloudy.13 mph100%30.27 "HgN/A
5:50 PM54 °FPartly cloudy.9 mph100%30.27 "HgN/A
5:20 PM52 °FPassing clouds.5 mph100%30.27 "Hg6 mi
4:50 PM50 °FPartly cloudy.3 mph100%30.27 "HgN/A
4:20 PM48 °FPartly sunny.5 mph100%30.24 "Hg5 mi
3:50 PM48 °FDrizzle. Fog.5 mph100%30.24 "Hg2 mi
3:20 PM46 °FDrizzle. Fog.3 mph100%30.24 "Hg2 mi
2:50 PM46 °FDrizzle. Fog.2 mph100%30.24 "Hg2 mi
2:20 PM46 °FDrizzle. Fog.2 mph100%30.24 "Hg2 mi
1:50 PM46 °FDrizzle. Fog.2 mph100%30.24 "Hg2 mi
1:20 PM46 °FDrizzle. Fog.2 mph100%30.24 "Hg2 mi
12:50 PM46 °FDrizzle. More clouds than sun.3 mph100%30.24 "Hg4 mi
12:20 PM45 °FDrizzle. More clouds than sun.2 mph100%30.24 "Hg4 mi
11:50 AM45 °FDrizzle. Fog.2 mph100%30.24 "Hg3 mi
11:20 AM45 °FDrizzle. Fog.2 mph100%30.24 "Hg3 mi
10:50 AM45 °FLight rain. More clouds than sun.2 mph100%30.24 "Hg4 mi
10:20 AM45 °FRain. Broken clouds.1 mph100%30.24 "Hg4 mi
9:50 AM45 °FLight rain. More clouds than sun.2 mph100%30.21 "Hg4 mi
8:50 AM45 °FLight rain. More clouds than sun.5 mph100%30.21 "Hg4 mi
8:20 AM45 °FRain. More clouds than sun.7 mph100%30.18 "Hg5 mi
7:50 AM46 °FRain. Mostly cloudy.8 mph100%30.18 "Hg6 mi
7:20 AM46 °FRain. Partly cloudy.7 mph100%30.15 "Hg5 mi
6:50 AM46 °FDrizzle. Overcast.8 mph100%30.15 "Hg4 mi
5:50 AM48 °FDrizzle. Mostly cloudy.14 mph100%30.12 "Hg4 mi
5:20 AM50 °FRain. Mostly cloudy.12 mph100%30.09 "HgN/A
4:50 AM50 °FLight rain. Mostly cloudy.13 mph100%30.09 "HgN/A
4:20 AM52 °FRain. Passing clouds.14 mph94%30.07 "HgN/A
3:50 AM54 °FLight rain. Low clouds.12 mph94%30.07 "HgN/A
3:20 AM52 °FLight rain. Passing clouds.12 mph94%30.07 "HgN/A
2:50 AM54 °FLight rain. Passing clouds.14 mph88%30.04 "HgN/A
2:20 AM54 °FLight rain. Partly cloudy.23 mph88%30.04 "HgN/A
1:50 AM54 °FLight rain. Mostly cloudy.25 mph88%30.01 "HgN/A
12:50 AM54 °FLight rain. Overcast.14 mph82%29.98 "HgN/A
12:20 AM54 °FLight rain. Passing clouds.24 mph82%29.98 "HgN/A
11:20 PM
Mon, Nov 30
54 °FLight rain. Passing clouds.30 mph82%29.95 "HgN/A
10:50 PM52 °FLight rain. Overcast.24 mph88%29.95 "HgN/A
10:20 PM52 °FLight rain. Overcast.31 mph88%29.95 "HgN/A
9:50 PM54 °FLight rain. Overcast.30 mph82%29.95 "HgN/A
9:20 PM52 °FLight rain. Overcast.28 mph82%29.95 "HgN/A
Weather by CustomWeather, © 2015

See weather overviewHow to use our weather pages